Flag Weather past 2 weeks in Monterey, California, U.S.A.

Now
65 °F

Sunny.


Feels Like: 65 °F
Forecast: 49 / 62 °F
Wind: 7 mph from Northeast

Location: Monterey Peninsula Airport

Current Time: Nov 23, 2014 at 1:22:04 PM

Latest Report: Nov 23, 2014 at 12:54 PM


Visibility: 10 mi

Pressure: 30.30 "Hg

Humidity: 47%

Dew point: 44 °F

Location of MontereyLocation

Historic Weather in Monterey — Graph

°F

Monterey temperature yesterday

Maximum temperature yesterday: 64 °F (at 1:54 PM)
Minimum temperature yesterday: 50 °F (at 11:54 PM)
Average temperature yesterday: 58 °F

Past Weeks' High & Low Weather Summary

 TemperatureHumidityPressure
High70 °F (Nov 8, 12:54 PM)100% (Nov 9, 8:01 AM)30.35 "Hg (Nov 9, 8:01 AM)
Low45 °F (Nov 17, 6:54 AM)19% (Nov 18, 1:54 PM)29.83 "Hg (Nov 10, 7:04 AM)
Average58 °F75%30.10 "Hg
* Reported Nov 8 11:54 AM — Nov 23 11:54 AM, Monterey, Weather by CustomWeather, © 2014

Note: Actual official high and low records may vary slightly from our data, if they occured in-between our weather recording intervals... More about our weather records

Advertising

Monterey weather history for previous 24 hours

 ConditionsComfort  
Time TempWeatherWind HumidityBarometerVisibility
11:54 AM
Nov 23
63 °FSunny.8 mph52%30.32 "Hg10 mi
10:54 AM62 °FSunny.6 mph54%30.35 "Hg10 mi
9:54 AM60 °FSunny.6 mph62%30.35 "Hg10 mi
8:54 AM55 °FSunny.5 mph93%30.34 "Hg10 mi
7:54 AM50 °FSunny.8 mph96%30.31 "Hg10 mi
6:54 AM46 °FSunny.5 mph100%30.32 "Hg10 mi
5:54 AM46 °FClear.3 mph100%30.30 "Hg10 mi
4:54 AM47 °FClear.3 mph100%30.28 "Hg10 mi
3:54 AM48 °FClear.No wind100%30.28 "Hg10 mi
2:54 AM50 °FClear.5 mph96%30.27 "Hg10 mi
1:54 AM50 °FClear.9 mph96%30.26 "Hg10 mi
12:54 AM50 °FClear.7 mph93%30.25 "Hg10 mi
11:54 PM
Nov 22
50 °FClear.5 mph93%30.26 "Hg10 mi
10:54 PM52 °FClear.No wind89%30.27 "Hg10 mi
9:54 PM52 °FClear.6 mph93%30.26 "Hg10 mi
8:54 PM54 °FClear.No wind90%30.24 "Hg10 mi
7:54 PM57 °FClear.5 mph90%30.23 "Hg10 mi
6:54 PM59 °FLight rain. Clear.7 mph87%30.20 "Hg10 mi
5:54 PM59 °FLight rain. Clear.7 mph90%30.20 "Hg10 mi
4:54 PM60 °FLight rain. Clear.6 mph90%30.19 "Hg10 mi
3:54 PM62 °FLight rain. Broken clouds.6 mph86%30.20 "Hg10 mi
2:54 PM61 °FLight rain. Low clouds.3 mph90%30.18 "Hg10 mi
1:54 PM64 °FLight rain. Mostly cloudy.8 mph90%30.17 "Hg10 mi
Weather by CustomWeather, © 2014

See weather overviewHow to use our weather pages